Meath Environmental Platform

Observations for Trim Market St

Time AQI Temp °C Hum % Pres Pa CO μg/m³ H₂S μg/m³ NO μg/m³ NO₂ μg/m³ O₃ μg/m³ SO₂ μg/m³ PM1 μg/m³ PM2.5 μg/m³ PM10 μg/m³
Tuesday 25 August 2026
12:04 2 27.1 40 65,643 0 0 1.05 18.08 104.18 0 1.43 4.97 5.92
12:03 2 27 41 65,655 0 0 0.99 14.75 92.61 0 1.43 3.91 5.12
12:02 2 27 41 65,617 0 0 0.97 15.83 98.22 0 2.14 4.97 5.92
12:01 2 26.9 40 65,627 0 0 1.01 18.54 110.79 0 1.43 3.39 4.32
12:00 2 26.9 40 65,639 0 0 1 13.97 117.15 0 1.43 3.93 4.32
11:56 2 27 40 65,748 0 0 1.09 13.49 93.39 0 2.85 5.55 7.53
11:51 2 27.4 39 65,799 0 0 1.05 12.84 95.35 0 2.85 6.11 6.71
11:50 2 27.5 39 65,805 0 0 1.11 13.66 91.99 0 1.43 5.05 5.09
11:49 2 27.7 39 65,815 0 0 1.07 12.38 82.93 0 0.71 2.94 3.23
11:43 2 28.2 38 65,892 0.22 0 1.21 13.42 82.89 0 2.14 4.57 5.02
11:38 2 28.8 38 65,927 0 0 1.22 14.93 77.58 0 1.43 5.09 5.6
11:37 2 28.8 38 65,929 0 0 1.22 15.98 72.18 0 2.14 4.57 5.07
11:36 2 28.9 38 65,906 0 0 1.3 17.69 73 0 2.85 5.64 5.89
11:35 2 29 38 65,929 0 0 1.34 16.17 72.76 0 2.14 4.58 5.03
11:34 2 29.1 38 65,927 0 0 1.28 16.55 73.61 0 2.14 4.59 5.04
11:33 2 29.2 37 65,927 0 0 1.32 19.64 73.32 0 2.85 5.12 5.64
11:32 2 29.2 37 65,923 0 0 1.41 21.05 70.04 0 3.56 6.19 6.7
11:31 2 29.3 37 65,947 0.04 0 1.49 17.09 72.25 0 1.43 4.6 5.05
11:30 2 29.3 37 65,949 0.01 0 1.49 14.79 73.09 0 2.14 5.13 5.64
11:29 2 29.4 37 65,951 0.14 0 1.6 17.15 70.9 0 1.43 4.59 5.06